Theta_e
304 301 302 302 303 304 304 304 304 305 306 304 304 305 305 306 307 307 308 310 313 313 316 318 319 320 320 321 321 320 319 321 330 338 337 339 336 335 335 334 335 338 338 335
301 303 305 304 304 303 303 303 303 304 305 306 305 305 305 306 306 307 308 309 311 313 313 314 316 318 322 322 321 321 319 319 323 332 330 336 334 333 335 337 336 338 338 336
302 304 305 304 303 303 303 302 303 304 305 305 305 305 305 306 306 307 308 308 309 310 312 314 314 314 319 322 322 321 321 320 320 326 335 339 337 337 338 339 338 336 335 334
304 304 304 303 303 302 302 305 305 304 304 305 304 306 306 306 306 306 308 309 309 310 311 312 313 314 315 321 323 322 321 321 322 328 333 335 334 333 332 334 336 335 334 333
303 303 303 302 302 303 304 303 304 305 306 305 305 305 305 305 305 306 307 308 309 310 311 312 313 313 314 318 323 323 322 322 325 328 331 333 335 330 332 334 336 337 334 333
303 303 303 302 303 302 302 304 304 305 307 308 306 306 305 305 305 307 307 308 310 310 311 312 312 317 317 314 321 322 323 325 326 329 334 332 331 331 334 336 337 337 334 333
302 303 303 303 302 302 302 304 307 306 306 307 306 306 305 305 306 307 308 309 310 311 311 315 316 315 316 315 317 326 327 327 333 336 334 331 331 332 333 335 337 334 332 331
304 303 302 302 302 302 303 307 310 311 310 309 309 308 305 305 306 308 309 309 313 324 324 327 327 329 329 329 328 328 328 330 334 334 332 333 335 336 336 337 337 333 332 331
303 303 302 302 302 302 307 307 306 311 312 311 309 305 306 306 307 308 309 309 327 325 326 328 329 330 330 332 332 332 332 333 334 335 337 337 335 336 335 339 337 334 331 332
302 302 302 302 302 304 306 305 308 309 313 312 306 305 305 306 307 309 313 315 319 321 324 325 326 327 327 326 327 327 328 328 332 334 335 336 336 334 334 335 334 334 332 331
301 301 302 301 301 301 302 306 306 308 310 314 311 307 313 316 320 322 324 320 315 322 318 320 321 322 322 322 321 322 322 323 326 331 333 335 334 333 333 333 334 335 333 330
301 299 301 301 301 302 303 303 306 310 308 310 312 310 312 313 317 315 316 320 319 317 316 318 319 320 320 320 320 321 321 322 324 325 327 330 331 334 333 334 333 332 331 330
300 298 301 300 301 303 302 304 305 308 309 311 311 311 312 314 317 315 313 314 317 315 315 317 318 316 319 319 319 320 321 321 322 323 324 326 327 331 330 331 332 331 329 328
301 300 297 300 301 301 302 304 307 310 312 310 312 312 314 316 316 314 313 311 317 314 313 314 313 313 315 316 317 319 320 320 322 324 324 325 326 327 329 327 329 328 328 326
299 298 298 299 300 302 304 307 307 310 309 310 310 314 313 313 314 312 311 309 309 311 312 311 310 311 310 311 313 315 317 318 320 322 323 324 324 326 326 326 328 327 326 324
298 298 300 301 302 304 306 307 306 309 307 306 306 310 307 311 311 311 310 309 308 306 304 308 307 307 306 306 310 311 312 314 316 318 321 322 322 323 324 325 325 325 324 322
298 299 301 302 302 304 310 305 305 307 305 306 306 306 304 313 312 311 310 309 307 306 304 302 303 304 303 303 303 305 310 312 313 314 316 318 320 321 322 322 323 324 324 324
299 299 300 302 304 304 304 303 302 304 305 304 303 303 304 308 305 305 307 308 305 302 303 302 301 301 300 299 300 301 304 308 311 312 312 313 315 318 320 322 323 323 323 325
302 304 304 307 306 305 302 301 301 302 305 302 301 301 302 305 303 301 300 301 300 298 298 298 299 298 298 298 298 299 301 303 305 307 310 311 311 313 314 317 320 321 323 324
303 304 304 304 306 307 300 300 300 300 305 300 299 301 301 301 301 300 297 296 297 296 295 296 296 296 296 295 296 298 298 299 299 300 302 306 308 311 312 312 316 318 321 322
302 301 303 304 304 302 299 298 298 303 300 298 298 299 300 300 299 297 297 295 295 294 293 294 293 293 292 293 294 293 294 295 295 297 300 301 304 306 309 309 311 313 317 318
301 302 298 301 301 300 297 298 298 297 296 297 297 298 299 298 296 295 294 295 295 294 293 293 293 292 292 292 292 292 293 294 295 296 297 299 301 302 305 307 308 311 313 316
296 297 297 298 299 299 297 296 296 295 295 295 296 298 297 296 295 294 293 292 292 292 292 291 291 291 290 289 290 291 292 294 296 297 298 299 301 301 302 304 307 309 310 309
297 301 297 299 299 298 296 296 294 295 294 295 295 296 295 294 293 291 291 291 290 290 290 289 289 287 287 288 289 290 292 294 296 297 298 298 299 300 302 303 304 305 305 304
295 296 295 298 299 298 296 296 294 295 294 294 294 294 294 293 292 291 289 288 289 288 288 287 285 285 286 287 288 290 291 292 294 295 295 295 296 297 297 299 300 301 300 300
299 294 293 294 297 295 297 294 293 294 294 294 293 293 293 292 290 290 289 287 287 288 288 289 287 287 286 286 287 288 290 291 292 292 292 293 293 293 293 292 293 293 295 296
Wind_Speed
6 5 2 4 4 6 6 10 18 23 17 13 15 23 24 26 29 27 31 30 37 34 35 42 42 40 47 49 50 46 41 39 47 49 44 38 34 31 31 31 30 29 29 27
6 1 3 6 8 11 14 17 21 26 19 17 18 24 26 26 27 36 33 31 34 34 37 37 27 39 41 43 45 47 46 45 48 51 47 43 37 32 31 32 31 32 31 30
2 5 7 12 11 13 14 13 16 19 25 23 21 27 21 22 25 36 39 40 39 35 36 41 37 34 27 32 47 48 48 49 51 52 53 46 39 34 32 33 32 32 31 31
2 9 11 12 12 8 19 9 14 21 18 16 11 24 27 24 25 24 33 35 33 32 33 39 42 40 32 26 36 49 56 47 49 54 53 48 43 39 36 35 35 29 32 31
3 8 13 11 6 11 13 15 20 19 20 19 29 13 25 15 22 22 20 34 33 38 32 32 37 36 30 24 21 30 35 40 44 50 50 46 42 37 36 36 32 30 31 32
1 11 2 4 13 11 16 11 23 23 10 9 30 16 22 19 20 19 19 31 29 31 32 31 29 31 37 31 26 25 25 33 39 44 47 43 41 38 37 33 31 31 31 33
9 3 3 7 21 10 10 14 6 5 1 12 14 15 21 15 13 19 19 23 28 30 34 35 30 37 35 34 25 31 34 37 42 45 41 36 35 37 33 29 27 27 31 33
5 5 4 7 11 8 14 4 5 7 9 18 18 10 10 10 10 20 26 30 21 10 6 17 25 26 28 25 25 28 30 29 31 35 33 35 35 30 28 28 26 26 28 30
4 4 12 11 5 3 3 4 14 10 11 9 4 8 11 8 13 11 11 22 11 23 32 33 33 29 27 26 22 20 19 18 23 28 33 33 29 27 27 28 27 25 24 22
4 14 5 4 15 4 4 9 7 6 7 6 5 7 5 13 14 15 21 13 14 17 32 33 28 25 20 17 15 10 10 12 14 19 23 22 23 25 22 27 26 26 24 22
1 4 10 5 1 13 7 5 4 7 6 7 6 4 18 22 18 19 22 9 30 7 27 30 28 23 20 14 14 9 7 5 9 14 15 16 22 22 22 24 25 24 24 22
4 3 4 19 22 10 1 11 10 4 9 5 5 5 10 12 16 19 23 28 19 24 29 31 27 21 23 18 14 10 9 8 4 7 8 12 11 17 21 25 24 23 24 22
2 3 6 11 5 4 9 17 17 14 13 11 8 6 10 13 12 15 21 31 16 20 28 29 27 23 24 18 13 11 11 8 4 5 6 9 13 15 18 24 24 24 21 18
2 3 7 6 12 12 14 22 22 9 12 4 7 12 15 16 17 14 11 15 19 16 23 33 26 25 22 18 14 12 9 6 5 4 5 6 11 21 22 27 23 19 19 19
2 2 5 14 16 16 19 15 19 11 20 8 16 11 13 12 11 9 16 16 25 26 17 26 25 25 19 17 17 15 11 8 6 4 6 5 8 16 13 13 15 16 17 16
1 4 6 14 14 10 14 11 15 10 17 21 20 9 19 12 13 19 18 22 28 25 31 28 27 21 15 16 16 13 12 12 7 5 4 5 6 5 13 15 15 16 15 14
2 3 2 7 8 16 2 13 15 8 17 14 12 13 22 3 9 13 14 21 20 20 19 22 23 17 16 17 15 13 10 8 7 7 5 1 3 6 9 12 14 17 14 15
5 4 4 6 7 2 2 7 10 15 16 20 21 20 17 19 28 33 24 19 21 17 17 15 16 14 11 12 15 15 10 6 4 3 5 5 2 3 6 10 11 17 18 20
9 4 2 2 2 4 8 14 12 12 5 20 19 21 22 12 22 34 32 28 25 20 17 14 11 9 9 13 15 14 11 8 6 6 4 4 4 3 4 8 10 10 14 25
2 2 2 2 2 2 5 21 29 16 1 23 26 15 14 21 9 7 22 26 25 23 19 17 12 8 9 13 14 13 13 12 11 10 8 7 6 5 5 7 9 16 16 13
4 3 2 2 3 3 10 23 25 4 6 26 26 22 16 7 7 8 13 18 17 17 17 15 14 14 12 11 12 15 16 17 15 13 11 10 8 7 6 8 9 9 17 18
2 2 2 3 3 2 17 7 6 6 13 17 21 19 13 11 10 13 14 16 16 15 15 16 17 17 15 15 15 17 19 16 14 14 12 10 10 10 8 8 8 9 8 12
1 4 3 4 3 1 3 2 6 9 11 14 15 15 9 11 14 15 15 15 15 16 15 14 15 15 16 17 17 17 16 14 14 13 12 11 10 9 9 8 7 6 4 5
4 1 2 2 5 9 4 3 7 7 9 10 10 11 9 9 11 12 13 14 15 16 14 13 14 16 17 16 16 14 13 13 12 12 12 12 11 11 9 8 7 6 5 5
6 1 3 3 5 10 5 6 8 4 7 10 9 11 9 10 11 12 13 14 14 14 15 13 13 13 14 15 14 12 12 12 13 14 12 12 12 13 13 12 10 9 10 9
6 6 4 5 4 2 1 4 5 4 6 4 8 8 10 10 10 11 11 13 15 14 15 14 14 15 14 13 13 13 14 13 13 12 12 12 12 13 15 17 17 14 12 9
Wind_Direction
350 58 324 260 240 260 284 309 304 303 306 309 298 296 295 304 297 270 264 261 262 275 273 258 260 271 262 253 249 244 234 229 225 219 222 215 216 219 222 225 228 225 227 223
21 187 319 340 355 344 336 326 310 305 314 317 305 292 291 288 280 277 272 262 257 258 262 276 280 268 266 250 243 241 237 234 230 225 224 221 217 219 224 223 227 229 229 233
212 248 355 8 356 337 307 301 299 293 309 300 296 284 287 279 293 286 272 263 257 256 259 269 268 275 271 254 242 238 240 238 233 227 219 215 213 215 220 225 224 224 227 228
61 24 13 344 320 302 303 311 310 301 304 287 309 288 278 283 277 278 276 266 254 252 256 264 270 264 266 263 241 236 236 233 228 222 217 216 212 213 220 225 224 216 225 223
302 6 338 318 299 321 296 309 293 287 284 292 276 265 273 264 269 277 268 269 254 261 261 260 267 265 264 254 224 220 220 217 217 217 217 217 215 222 226 224 224 216 227 222
309 302 276 270 322 310 305 313 300 282 264 256 258 265 271 255 258 278 274 268 261 263 267 265 262 256 271 257 232 212 208 209 213 212 212 215 219 222 224 222 217 217 229 228
324 137 277 305 335 335 4 318 299 299 273 265 289 281 259 258 249 272 283 281 267 276 266 268 235 226 248 254 232 204 199 202 204 206 211 216 223 226 227 231 220 223 228 228
341 329 11 328 296 279 323 323 282 296 305 288 290 264 266 256 267 288 280 275 276 276 195 129 149 149 145 151 169 184 185 190 199 205 212 220 224 226 231 235 233 233 231 236
317 239 308 291 300 358 309 312 296 280 260 275 267 289 300 302 304 269 282 279 120 114 111 112 111 113 115 120 124 141 148 160 181 199 212 219 227 227 232 229 239 239 232 236
258 298 276 307 309 285 220 324 332 313 321 281 300 319 278 304 319 310 313 303 144 299 106 109 106 107 101 96 103 113 126 150 173 190 209 219 224 221 227 236 232 228 227 224
232 184 298 347 260 293 322 309 278 268 256 326 318 322 12 357 1 341 326 218 150 93 86 93 89 90 94 88 87 83 112 145 183 195 205 208 222 221 225 219 225 225 217 217
223 214 290 299 292 279 343 303 307 300 310 280 278 275 333 359 33 24 18 37 81 100 91 93 95 94 94 79 80 81 88 98 147 217 221 216 222 212 203 208 210 220 206 206
308 298 321 321 345 327 325 316 314 304 276 262 283 276 346 357 42 21 34 3 44 63 87 93 86 79 84 76 67 63 59 67 106 236 238 236 226 225 218 218 221 206 212 216
6 194 178 226 262 289 300 312 323 310 304 299 242 301 359 8 29 5 29 5 38 39 64 81 76 71 72 80 73 72 75 80 110 159 232 236 229 225 230 223 214 214 219 226
99 242 248 270 272 285 293 331 344 345 353 17 330 335 11 8 31 17 72 60 67 32 57 73 68 64 52 64 71 69 71 73 94 141 169 164 196 194 203 198 207 215 222 223
332 269 280 281 273 275 311 332 347 1 3 1 351 353 341 331 88 72 67 61 62 56 35 43 55 55 48 50 57 61 64 64 58 77 136 190 191 191 203 211 205 218 217 220
232 241 312 283 322 313 180 7 339 339 30 350 2 321 313 115 84 70 81 82 66 66 60 40 48 50 37 34 34 41 47 53 51 49 49 57 211 218 210 220 213 210 218 227
235 242 232 275 302 334 341 360 337 347 17 1 351 344 332 48 52 43 42 74 80 72 61 51 41 49 48 28 24 20 27 38 46 43 44 38 19 232 217 212 199 213 221 228
206 186 234 280 272 241 9 337 340 333 332 2 350 345 354 48 46 41 35 54 65 67 63 58 52 41 20 19 14 14 22 19 21 38 28 3 9 348 304 259 222 209 226 219
340 129 160 330 268 314 339 316 324 309 313 359 346 347 4 25 47 30 37 49 55 52 42 36 37 17 9 14 9 12 23 24 24 19 11 4 356 320 327 316 269 249 230 224
349 355 360 302 264 105 325 322 323 68 313 333 335 349 13 37 48 37 39 46 52 56 43 28 19 25 19 17 20 29 28 30 20 13 2 358 349 346 349 322 305 294 248 245
139 342 326 320 6 330 4 356 46 304 320 336 345 355 9 23 34 27 30 29 24 21 18 14 4 7 8 20 30 31 31 25 19 19 9 4 0 360 354 344 338 305 280 234
341 172 192 160 194 173 33 17 345 340 337 347 357 11 12 9 7 3 8 16 15 16 12 5 1 4 20 35 34 31 27 27 26 25 18 16 13 9 6 353 352 349 286 224
329 224 151 127 197 182 161 6 353 340 352 355 8 13 20 20 7 11 8 12 14 17 15 9 12 21 31 37 36 33 26 33 36 37 36 33 31 35 28 22 22 41 51 89
226 105 186 260 131 156 167 2 342 351 343 3 18 20 18 21 17 7 13 16 19 17 15 18 24 33 39 42 40 36 32 35 45 45 42 45 44 47 53 58 61 66 79 76
198 189 157 220 121 203 173 322 355 5 331 341 6 14 27 19 29 28 23 19 25 24 23 26 35 37 36 38 40 36 35 36 47 53 53 54 58 62 68 73 75 81 81 93